User: anonymous   Login
Location: Dos Palmas
(32.4468°N, 116.8732°W)
Time: 03:01:07
(UTC+00:00)
Language:

S3M - Orbit

View from above orbital plane
View from above orbital plane
View from above satellite
View from above satellite

Ground track
Ground track

The orbit data is extracted from the following two-line orbital elements,

1 12508U 81053B   21264.40938280  .00000032  00000-0  17266-4 0  9993
2 12508  82.9557  69.5736 0037667 169.4992 190.6961 13.76377315 29443
Epoch (UTC): 21 September 2021 09:49:30
Eccentricity: 0.0037667
inclination: 82.9557°
perigee height: 949 km
apogee height: 1004 km
right ascension of ascending node: 69.5736°
argument of perigee: 169.4992°
revolutions per day: 13.76377315
mean anomaly at epoch: 190.6961°
orbit number at epoch: 2944

The dashed part of the orbit path shows where the satellite is in the earth's shadow,  

DLR